STARLINK-1925 (46756 NORAD) Tracking and Keplerian Element Data

This shows tracking and keplerian element data for the satellite.

Feedback or suggestion? Click here.




ElementValue
Catalog46756
NameSTARLINK-1925
Epoch Orbit515
Epoch Day328.16667824
Epoch Year2020
RAAN15.4274
Inclination53.0551
Eccentricity0.0001171
Argument of Perigee71.2209
Mean Anonmoly181.4582
Mean Motion15.62827166
Decay Rate8.008E-05
L11 46756U 20074T 20328.16667824 .00008008 00000-0 92942-4 0 9992
L22 46756 53.0551 15.4274 0001171 71.2209 181.4582 15.62827166 5157

Live tracking and technical data element details for STARLINK-1925 (NORAD 46756). STARLINK-1925 can be tracked NOW for your location showing map with azimuth and elevation plus other details from your city location.

Track the satellite on the map from your city or location and see movement details for azimuth, elevation, latitude, longitude, range, height, and movement on the map or in text.







IsCatalogInMostPopularTable: catalog: 46756, numindb: 6
Update: records affected: 1



GetName: 46756 STARLINK-1925

Hit Count: updated at: Tue, 24 Nov 2020 12:30:49 GMT